Time,TemperatureF,DewpointF,PressureIn,WindDirection,WindDirectionDegrees,WindSpeedMPH,WindSpeedGustMPH,Humidity,HourlyPrecipIn,Conditions,Clouds,dailyrainin,SolarRadiationWatts/m^2,SoftwareType,DateUTC
2013-01-11 00:32:00,43.0,35.0,29.83,SE,137,14.0,21.0,71,-99.99,,,-99.99,0.000000,,2013-01-11 07:32:00,
2013-01-11 00:42:00,44.0,35.0,29.82,SE,140,14.0,20.0,70,-99.99,,,-99.99,0.000000,,2013-01-11 07:42:00,
2013-01-11 00:52:00,44.0,35.0,29.82,SE,140,14.0,20.0,70,-99.99,,,-99.99,0.000000,,2013-01-11 07:52:00,
2013-01-11 01:02:00,44.0,35.0,29.81,SE,144,15.0,21.0,70,-99.99,,,-99.99,0.000000,,2013-01-11 08:02:00,
2013-01-11 01:12:00,45.0,34.0,29.80,SSE,155,15.0,21.0,66,-99.99,,,-99.99,0.000000,,2013-01-11 08:12:00,
2013-01-11 01:22:00,45.0,34.0,29.80,SSE,155,15.0,21.0,66,-99.99,,,-99.99,0.000000,,2013-01-11 08:22:00,
2013-01-11 01:32:00,45.0,35.0,29.80,SSE,155,13.0,22.0,66,-99.99,,,-99.99,0.000000,,2013-01-11 08:32:00,
2013-01-11 01:42:00,43.0,35.0,29.80,SSE,152,12.0,18.0,71,-99.99,,,-99.99,0.000000,,2013-01-11 08:42:00,
2013-01-11 01:53:00,43.0,35.0,29.80,SSE,152,12.0,18.0,71,-99.99,,,-99.99,0.000000,,2013-01-11 08:53:00,
2013-01-11 02:02:00,43.0,35.0,29.80,SSE,163,13.0,20.0,71,-99.99,,,-99.99,0.000000,,2013-01-11 09:02:00,
2013-01-11 02:12:00,44.0,34.0,29.79,South,174,14.0,19.0,67,-99.99,,,-99.99,0.000000,,2013-01-11 09:12:00,
2013-01-11 02:22:00,44.0,34.0,29.79,South,174,14.0,19.0,67,-99.99,,,-99.99,0.000000,,2013-01-11 09:22:00,
2013-01-11 02:32:00,44.0,33.0,29.79,South,174,13.0,21.0,65,-99.99,,,-99.99,0.000000,,2013-01-11 09:32:00,
2013-01-11 02:42:00,45.0,33.0,29.79,South,177,13.0,21.0,63,-99.99,,,-99.99,0.000000,,2013-01-11 09:42:00,
2013-01-11 02:52:00,45.0,33.0,29.79,South,177,13.0,21.0,63,-99.99,,,-99.99,0.000000,,2013-01-11 09:52:00,
2013-01-11 03:02:00,44.0,34.0,29.78,South,170,15.0,22.0,66,-99.99,,,-99.99,0.000000,,2013-01-11 10:02:00,
2013-01-11 03:12:00,43.0,34.0,29.78,SSE,166,15.0,23.0,69,-99.99,,,-99.99,0.000000,,2013-01-11 10:12:00,
2013-01-11 03:22:00,43.0,34.0,29.78,SSE,166,15.0,23.0,69,-99.99,,,-99.99,0.000000,,2013-01-11 10:22:00,
2013-01-11 03:32:00,43.0,34.0,29.77,SSE,167,14.0,22.0,70,-99.99,,,-99.99,0.000000,,2013-01-11 10:32:00,
2013-01-11 03:42:00,43.0,33.0,29.77,South,173,13.0,18.0,68,-99.99,,,-99.99,0.000000,,2013-01-11 10:42:00,
2013-01-11 03:52:00,43.0,33.0,29.77,South,173,13.0,18.0,68,-99.99,,,-99.99,0.000000,,2013-01-11 10:52:00,
2013-01-11 04:03:00,43.0,33.0,29.76,South,173,14.0,19.0,67,-99.99,,,-99.99,0.000000,,2013-01-11 11:03:00,
2013-01-11 04:12:00,43.0,32.0,29.76,South,174,16.0,21.0,64,-99.99,,,-99.99,0.000000,,2013-01-11 11:12:00,
2013-01-11 04:22:00,43.0,32.0,29.76,South,174,16.0,21.0,64,-99.99,,,-99.99,0.000000,,2013-01-11 11:22:00,
2013-01-11 04:33:00,45.0,30.0,29.74,South,176,16.0,23.0,56,-99.99,,,-99.99,0.000000,,2013-01-11 11:33:00,
2013-01-11 04:42:00,50.0,27.0,29.73,SSW,203,18.0,38.0,40,-99.99,,,-99.99,0.000000,,2013-01-11 11:42:00,
2013-01-11 04:53:00,50.0,27.0,29.73,SSW,203,18.0,38.0,40,-99.99,,,-99.99,0.000000,,2013-01-11 11:53:00,
2013-01-11 05:03:00,55.0,23.0,29.72,SW,221,30.0,44.0,28,-99.99,,,-99.99,0.000000,,2013-01-11 12:03:00,
2013-01-11 05:12:00,55.0,23.0,29.72,SW,221,30.0,44.0,28,-99.99,,,-99.99,0.000000,,2013-01-11 12:12:00,
2013-01-11 05:22:00,55.0,23.0,29.72,SW,221,30.0,44.0,28,-99.99,,,-99.99,0.000000,,2013-01-11 12:22:00,
2013-01-11 05:32:00,56.0,23.0,29.71,SW,218,32.0,49.0,28,-99.99,,,-99.99,0.000000,,2013-01-11 12:32:00,
2013-01-11 05:43:00,56.0,23.0,29.72,SW,223,32.0,48.0,27,-99.99,,,-99.99,0.000000,,2013-01-11 12:43:00,
2013-01-11 05:53:00,55.0,22.0,29.71,SW,222,33.0,51.0,27,-99.99,,,-99.99,0.000000,,2013-01-11 12:53:00,
2013-01-11 06:02:00,55.0,22.0,29.71,SW,222,33.0,51.0,27,-99.99,,,-99.99,0.000000,,2013-01-11 13:02:00,
2013-01-11 06:13:00,55.0,22.0,29.71,SW,221,33.0,50.0,26,-99.99,,,-99.99,0.000000,,2013-01-11 13:13:00,
2013-01-11 06:22:00,55.0,22.0,29.71,SW,221,33.0,50.0,26,-99.99,,,-99.99,0.000000,,2013-01-11 13:22:00,
2013-01-11 06:33:00,55.0,21.0,29.72,SW,220,33.0,51.0,26,-99.99,,,-99.99,0.000000,,2013-01-11 13:33:00,
2013-01-11 06:42:00,55.0,22.0,29.72,SW,221,34.0,55.0,26,-99.99,,,-99.99,0.000000,,2013-01-11 13:42:00,
2013-01-11 06:53:00,55.0,22.0,29.72,SW,221,34.0,55.0,26,-99.99,,,-99.99,0.000000,,2013-01-11 13:53:00,
2013-01-11 07:03:00,55.0,22.0,29.72,SW,223,33.0,50.0,27,-99.99,,,-99.99,0.000000,,2013-01-11 14:03:00,
2013-01-11 07:12:00,54.0,22.0,29.73,SW,221,32.0,48.0,27,-99.99,,,-99.99,0.000000,,2013-01-11 14:12:00,
2013-01-11 07:23:00,54.0,22.0,29.73,SW,221,32.0,48.0,27,-99.99,,,-99.99,0.000000,,2013-01-11 14:23:00,
2013-01-11 07:33:00,54.0,22.0,29.74,SW,223,26.0,40.0,28,-99.99,,,-99.99,0.000000,,2013-01-11 14:33:00,
2013-01-11 07:42:00,53.0,22.0,29.75,SW,225,22.0,37.0,29,-99.99,,,-99.99,2.090000,,2013-01-11 14:42:00,
2013-01-11 07:53:00,53.0,22.0,29.75,SW,225,22.0,37.0,29,-99.99,,,-99.99,2.090000,,2013-01-11 14:53:00,
2013-01-11 08:03:00,53.0,22.0,29.76,SW,234,20.0,34.0,29,-99.99,,,-99.99,16.040001,,2013-01-11 15:03:00,
2013-01-11 08:13:00,53.0,19.0,29.77,WSW,238,22.0,35.0,26,-99.99,,,-99.99,62.759998,,2013-01-11 15:13:00,
2013-01-11 08:23:00,53.0,19.0,29.77,WSW,238,22.0,35.0,26,-99.99,,,-99.99,62.759998,,2013-01-11 15:23:00,
2013-01-11 08:33:00,53.0,19.0,29.78,SW,236,20.0,33.0,25,-99.99,,,-99.99,124.820000,,2013-01-11 15:33:00,
2013-01-11 08:43:00,53.0,19.0,29.79,WSW,237,20.0,30.0,25,-99.99,,,-99.99,207.809998,,2013-01-11 15:43:00,
2013-01-11 08:53:00,53.0,19.0,29.79,WSW,237,20.0,30.0,25,-99.99,,,-99.99,207.809998,,2013-01-11 15:53:00,
2013-01-11 09:03:00,53.0,19.0,29.79,WSW,237,20.0,30.0,25,-99.99,,,-99.99,207.809998,,2013-01-11 16:03:00,
2013-01-11 09:12:00,52.0,22.0,29.82,West,279,13.0,20.0,31,-99.99,,,-99.99,293.579987,,2013-01-11 16:12:00,
2013-01-11 09:22:00,52.0,22.0,29.82,West,279,13.0,20.0,31,-99.99,,,-99.99,293.579987,,2013-01-11 16:22:00,
2013-01-11 09:33:00,50.0,25.0,29.82,West,275,13.0,21.0,36,-99.99,,,-99.99,137.369995,,2013-01-11 16:33:00,
2013-01-11 09:42:00,48.0,26.0,29.83,WNW,289,10.0,19.0,42,-99.99,,,-99.99,150.619995,,2013-01-11 16:42:00,
2013-01-11 09:53:00,48.0,26.0,29.83,WNW,289,10.0,19.0,42,-99.99,,,-99.99,150.619995,,2013-01-11 16:53:00,
2013-01-11 10:03:00,49.0,27.0,29.84,WNW,292,12.0,19.0,42,-99.99,,,-99.99,409.329987,,2013-01-11 17:03:00,
2013-01-11 10:12:00,49.0,27.0,29.84,WNW,285,13.0,26.0,43,-99.99,,,-99.99,441.410004,,2013-01-11 17:12:00,
2013-01-11 10:22:00,49.0,27.0,29.84,WNW,285,13.0,26.0,43,-99.99,,,-99.99,441.410004,,2013-01-11 17:22:00,
2013-01-11 10:33:00,48.0,27.0,29.84,WNW,294,15.0,23.0,43,-99.99,,,-99.99,448.390015,,2013-01-11 17:33:00,
2013-01-11 10:43:00,48.0,26.0,29.85,WNW,295,13.0,22.0,42,-99.99,,,-99.99,230.119995,,2013-01-11 17:43:00,
2013-01-11 10:53:00,48.0,26.0,29.85,WNW,295,13.0,22.0,42,-99.99,,,-99.99,230.119995,,2013-01-11 17:53:00,
2013-01-11 11:03:00,47.0,25.0,29.85,WNW,284,12.0,23.0,40,-99.99,,,-99.99,197.350006,,2013-01-11 18:03:00,
2013-01-11 11:12:00,47.0,24.0,29.85,WNW,294,11.0,19.0,39,-99.99,,,-99.99,184.100006,,2013-01-11 18:12:00,
2013-01-11 11:23:00,47.0,24.0,29.85,WNW,294,11.0,19.0,39,-99.99,,,-99.99,184.100006,,2013-01-11 18:23:00,
2013-01-11 11:33:00,47.0,23.0,29.85,WNW,293,12.0,25.0,38,-99.99,,,-99.99,162.479996,,2013-01-11 18:33:00,
2013-01-11 11:43:00,47.0,23.0,29.84,WNW,290,10.0,18.0,38,-99.99,,,-99.99,214.080002,,2013-01-11 18:43:00,
2013-01-11 11:53:00,47.0,23.0,29.84,WNW,290,10.0,18.0,38,-99.99,,,-99.99,214.080002,,2013-01-11 18:53:00,
2013-01-11 12:02:00,47.0,23.0,29.84,WNW,290,10.0,18.0,38,-99.99,,,-99.99,214.080002,,2013-01-11 19:02:00,
2013-01-11 12:12:00,47.0,23.0,29.84,WNW,290,10.0,18.0,38,-99.99,,,-99.99,214.080002,,2013-01-11 19:12:00,
2013-01-11 12:32:00,52.0,23.0,29.81,West,279,11.0,19.0,32,-99.99,,,-99.99,735.690002,,2013-01-11 19:32:00,
2013-01-11 12:43:00,52.0,23.0,29.81,West,279,11.0,19.0,32,-99.99,,,-99.99,735.690002,,2013-01-11 19:43:00,
2013-01-11 12:53:00,52.0,23.0,29.81,West,279,11.0,19.0,32,-99.99,,,-99.99,735.690002,,2013-01-11 19:53:00,
2013-01-11 13:03:00,52.0,23.0,29.79,West,275,10.0,20.0,31,-99.99,,,-99.99,638.059998,,2013-01-11 20:03:00,
2013-01-11 13:12:00,52.0,22.0,29.78,West,272,12.0,24.0,30,-99.99,,,-99.99,635.969971,,2013-01-11 20:12:00,
2013-01-11 13:22:00,52.0,22.0,29.78,West,272,12.0,24.0,30,-99.99,,,-99.99,635.969971,,2013-01-11 20:22:00,
2013-01-11 13:33:00,52.0,22.0,29.78,West,275,13.0,27.0,29,-99.99,,,-99.99,624.809998,,2013-01-11 20:33:00,
2013-01-11 13:43:00,52.0,21.0,29.78,West,280,14.0,25.0,28,-99.99,,,-99.99,622.719971,,2013-01-11 20:43:00,
2013-01-11 13:53:00,52.0,21.0,29.78,West,280,14.0,25.0,28,-99.99,,,-99.99,622.719971,,2013-01-11 20:53:00,
2013-01-11 14:03:00,52.0,21.0,29.77,West,276,13.0,25.0,28,-99.99,,,-99.99,652.700012,,2013-01-11 21:03:00,
2013-01-11 14:12:00,53.0,21.0,29.78,WNW,291,9.0,20.0,28,-99.99,,,-99.99,652.010010,,2013-01-11 21:12:00,
2013-01-11 14:23:00,53.0,21.0,29.78,WNW,291,9.0,20.0,28,-99.99,,,-99.99,652.010010,,2013-01-11 21:23:00,
2013-01-11 14:33:00,53.0,21.0,29.78,West,277,13.0,23.0,28,-99.99,,,-99.99,622.719971,,2013-01-11 21:33:00,
2013-01-11 14:42:00,53.0,21.0,29.78,West,274,14.0,27.0,28,-99.99,,,-99.99,511.839996,,2013-01-11 21:42:00,
2013-01-11 14:53:00,53.0,21.0,29.78,West,274,14.0,27.0,28,-99.99,,,-99.99,511.839996,,2013-01-11 21:53:00,
2013-01-11 15:02:00,53.0,22.0,29.78,West,261,17.0,28.0,29,-99.99,,,-99.99,465.820007,,2013-01-11 22:02:00,
2013-01-11 15:12:00,53.0,22.0,29.78,West,266,15.0,25.0,28,-99.99,,,-99.99,529.280029,,2013-01-11 22:12:00,
2013-01-11 15:22:00,53.0,22.0,29.78,West,266,15.0,25.0,28,-99.99,,,-99.99,529.280029,,2013-01-11 22:22:00,
2013-01-11 15:33:00,52.0,21.0,29.78,WSW,258,19.0,30.0,29,-99.99,,,-99.99,460.239990,,2013-01-11 22:33:00,
2013-01-11 15:42:00,52.0,21.0,29.79,West,264,13.0,26.0,28,-99.99,,,-99.99,385.630005,,2013-01-11 22:42:00,
2013-01-11 15:53:00,52.0,21.0,29.79,West,264,13.0,26.0,28,-99.99,,,-99.99,385.630005,,2013-01-11 22:53:00,
2013-01-11 16:02:00,51.0,21.0,29.79,West,261,14.0,23.0,29,-99.99,,,-99.99,220.360001,,2013-01-11 23:02:00,
2013-01-11 16:13:00,51.0,21.0,29.78,West,262,16.0,28.0,29,-99.99,,,-99.99,241.970001,,2013-01-11 23:13:00,
2013-01-11 16:22:00,51.0,21.0,29.78,West,262,16.0,28.0,29,-99.99,,,-99.99,241.970001,,2013-01-11 23:22:00,
2013-01-11 16:32:00,51.0,20.0,29.79,West,276,13.0,22.0,29,-99.99,,,-99.99,156.199997,,2013-01-11 23:32:00,
2013-01-11 16:43:00,50.0,20.0,29.79,WNW,285,9.0,19.0,29,-99.99,,,-99.99,100.419998,,2013-01-11 23:43:00,
2013-01-11 16:53:00,50.0,20.0,29.79,WNW,285,9.0,19.0,29,-99.99,,,-99.99,100.419998,,2013-01-11 23:53:00,
2013-01-11 17:02:00,50.0,19.0,29.79,West,277,8.0,20.0,29,-99.99,,,-99.99,112.269997,,2013-01-12 00:02:00,
2013-01-11 17:12:00,50.0,19.0,29.79,West,281,7.0,17.0,29,-99.99,,,-99.99,124.820000,,2013-01-12 00:12:00,
2013-01-11 17:23:00,50.0,19.0,29.79,West,281,7.0,17.0,29,-99.99,,,-99.99,124.820000,,2013-01-12 00:23:00,
2013-01-11 17:32:00,50.0,19.0,29.79,NW,323,6.0,9.0,28,-99.99,,,-99.99,74.610001,,2013-01-12 00:32:00,
2013-01-11 17:43:00,49.0,18.0,29.79,North,0,6.0,10.0,29,-99.99,,,-99.99,20.219999,,2013-01-12 00:43:00,
2013-01-11 17:53:00,48.0,18.0,29.79,North,356,7.0,14.0,29,-99.99,,,-99.99,5.580000,,2013-01-12 00:53:00,
2013-01-11 18:02:00,48.0,18.0,29.79,North,356,7.0,14.0,29,-99.99,,,-99.99,5.580000,,2013-01-12 01:02:00,
2013-01-11 18:12:00,47.0,17.0,29.80,NNW,338,2.0,7.0,29,-99.99,,,-99.99,0.700000,,2013-01-12 01:12:00,
2013-01-11 18:22:00,47.0,17.0,29.80,NNW,338,2.0,7.0,29,-99.99,,,-99.99,0.700000,,2013-01-12 01:22:00,
2013-01-11 18:32:00,46.0,16.0,29.81,NNW,327,7.0,18.0,29,-99.99,,,-99.99,0.000000,,2013-01-12 01:32:00,
2013-01-11 18:43:00,45.0,13.0,29.81,NNW,335,11.0,19.0,27,-99.99,,,-99.99,0.000000,,2013-01-12 01:43:00,
2013-01-11 18:52:00,45.0,13.0,29.81,NNW,335,11.0,19.0,27,-99.99,,,-99.99,0.000000,,2013-01-12 01:52:00,
2013-01-11 19:02:00,44.0,13.0,29.82,North,11,14.0,20.0,27,-99.99,,,-99.99,0.000000,,2013-01-12 02:02:00,
2013-01-11 19:12:00,44.0,12.0,29.81,North,356,18.0,27.0,26,-99.99,,,-99.99,0.000000,,2013-01-12 02:12:00,
2013-01-11 19:22:00,44.0,12.0,29.81,North,356,18.0,27.0,26,-99.99,,,-99.99,0.000000,,2013-01-12 02:22:00,
2013-01-11 19:32:00,44.0,12.0,29.81,North,356,18.0,27.0,26,-99.99,,,-99.99,0.000000,,2013-01-12 02:32:00,
2013-01-11 19:43:00,44.0,10.0,29.82,NNW,329,18.0,29.0,24,-99.99,,,-99.99,0.000000,,2013-01-12 02:43:00,
2013-01-11 19:53:00,44.0,10.0,29.82,NNW,329,18.0,29.0,24,-99.99,,,-99.99,0.000000,,2013-01-12 02:53:00,
2013-01-11 20:02:00,43.0,10.0,29.82,NW,323,15.0,21.0,25,-99.99,,,-99.99,0.000000,,2013-01-12 03:02:00,
2013-01-11 20:12:00,43.0,10.0,29.82,NW,323,15.0,21.0,25,-99.99,,,-99.99,0.000000,,2013-01-12 03:12:00,
2013-01-11 20:22:00,43.0,10.0,29.82,NW,323,15.0,21.0,25,-99.99,,,-99.99,0.000000,,2013-01-12 03:22:00,
2013-01-11 20:33:00,43.0,10.0,29.82,NW,318,16.0,27.0,25,-99.99,,,-99.99,0.000000,,2013-01-12 03:33:00,
2013-01-11 20:43:00,43.0,9.0,29.82,NW,326,11.0,19.0,25,-99.99,,,-99.99,0.000000,,2013-01-12 03:43:00,
2013-01-11 20:53:00,42.0,10.0,29.82,NNW,335,10.0,14.0,25,-99.99,,,-99.99,0.000000,,2013-01-12 03:53:00,
2013-01-11 21:02:00,42.0,10.0,29.82,NNW,335,10.0,14.0,25,-99.99,,,-99.99,0.000000,,2013-01-12 04:02:00,
2013-01-11 21:12:00,42.0,10.0,29.82,NNW,339,8.0,13.0,26,-99.99,,,-99.99,0.000000,,2013-01-12 04:12:00,
2013-01-11 21:22:00,42.0,10.0,29.82,NNW,339,8.0,13.0,26,-99.99,,,-99.99,0.000000,,2013-01-12 04:22:00,
2013-01-11 21:32:00,42.0,10.0,29.82,NNW,339,8.0,13.0,26,-99.99,,,-99.99,0.000000,,2013-01-12 04:32:00,
2013-01-11 21:42:00,40.0,10.0,29.82,North,357,8.0,9.0,27,-99.99,,,-99.99,0.000000,,2013-01-12 04:42:00,
2013-01-11 21:52:00,40.0,10.0,29.82,North,357,8.0,9.0,27,-99.99,,,-99.99,0.000000,,2013-01-12 04:52:00,
2013-01-11 22:03:00,40.0,10.0,29.82,North,357,8.0,9.0,27,-99.99,,,-99.99,0.000000,,2013-01-12 05:03:00,
2013-01-11 22:12:00,40.0,9.0,29.82,NNW,331,10.0,14.0,26,-99.99,,,-99.99,0.000000,,2013-01-12 05:12:00,
2013-01-11 22:22:00,40.0,9.0,29.82,NNW,331,10.0,14.0,26,-99.99,,,-99.99,0.000000,,2013-01-12 05:22:00,
2013-01-11 22:32:00,40.0,9.0,29.82,NW,317,8.0,13.0,27,-99.99,,,-99.99,0.000000,,2013-01-12 05:32:00,
2013-01-11 22:42:00,37.0,12.0,29.82,WNW,283,7.0,11.0,35,-99.99,,,-99.99,0.000000,,2013-01-12 05:42:00,
2013-01-11 22:52:00,37.0,12.0,29.82,WNW,283,7.0,11.0,35,-99.99,,,-99.99,0.000000,,2013-01-12 05:52:00,
2013-01-11 23:02:00,37.0,12.0,29.82,WNW,283,7.0,11.0,35,-99.99,,,-99.99,0.000000,,2013-01-12 06:02:00,
2013-01-11 23:12:00,34.0,13.0,29.83,WSW,254,5.0,9.0,40,-99.99,,,-99.99,0.000000,,2013-01-12 06:12:00,
2013-01-11 23:22:00,34.0,13.0,29.83,WSW,254,5.0,9.0,40,-99.99,,,-99.99,0.000000,,2013-01-12 06:22:00,
2013-01-11 23:32:00,33.0,13.0,29.83,SW,234,7.0,14.0,43,-99.99,,,-99.99,0.000000,,2013-01-12 06:32:00,
2013-01-11 23:42:00,32.0,14.0,29.83,SSW,204,6.0,10.0,45,-99.99,,,-99.99,0.000000,,2013-01-12 06:42:00,
2013-01-11 23:53:00,32.0,14.0,29.83,SSW,204,6.0,10.0,45,-99.99,,,-99.99,0.000000,,2013-01-12 06:53:00,